Chippewa, MI

4:53 AM EDT on July 27, 2017 (GMT -0400)
Chippewa County International

Weather History for KCIU - November, 2011

Change the Weather History Date:

Tuesday, November 22, 2011

  Actual Average Record
Temperature  
Mean Temperature 32 °F -  
Max Temperature 37 °F 38 °F 66 °F (2012)
Min Temperature 26 °F 24 °F 4 °F (1978)
Degree Days  
Heating Degree Days 34    
Moisture  
Dew Point 25 °F    
Average Humidity 74    
Maximum Humidity 86    
Minimum Humidity 65    
Precipitation  
Precipitation 0.00 in - - ()
Sea Level Pressure  
Sea Level Pressure 30.20 in    
Wind  
Wind Speed 7 mph (ESE)    
Max Wind Speed 14 mph    
Max Gust Speed 20 mph    
Visibility 10 miles    
Events      
Averages and records for this station are not official NWS values.
T = Trace of Precipitation, MM = Missing Value Source: NWS Daily Summary

Daily Weather History Graph

Daily Weather History Graph

Search for Another Location

Airport or City:

Trip Planner

Search our weather history database for the weather conditions in past years. The results will help you decide how hot, cold, wet, or windy it might be!

Date:

Astronomy

Nov. 22, 2011 Rise Set
Actual Time 7:48 AM EST 4:59 PM EST
Civil Twilight 7:15 AM EST 5:32 PM EST
Nautical Twilight 6:38 AM EST 6:09 PM EST
Astronomical Twilight 6:02 AM EST 6:45 PM EST
Moon 4:30 AM EST (11/22) 3:03 PM EST (11/22)
Length of Visible Light 10h 17m
Length of Day
9h 10m
Waning Crescent, 9% of the Moon is Illuminated
Nov 22
Waning Crescent
Nov 25
New
Dec 2
First Quarter
Dec 10
Full
Dec 17
Last Quarter

Hourly Weather History & Observations

Time (EST) Temp. Windchill Dew Point Humidity Pressure Visibility Wind Dir Wind Speed Gust Speed Precip Events Conditions
12:15 AM 30.2 °F - 21.2 °F 69% 30.35 in 10.0 mi Calm Calm - N/A   Overcast
12:35 AM 30.2 °F - 21.2 °F 69% 30.35 in 10.0 mi Calm Calm - N/A   Overcast
12:55 AM 30.2 °F - 21.2 °F 69% 30.35 in 10.0 mi Calm Calm - N/A   Overcast
1:15 AM 30.2 °F 24.3 °F 21.2 °F 69% 30.35 in 10.0 mi East 5.8 mph - N/A   Overcast
2:15 AM 30.2 °F 24.3 °F 21.2 °F 69% 30.34 in 10.0 mi ESE 5.8 mph - N/A   Overcast
2:35 AM 30.2 °F 25.4 °F 21.2 °F 69% 30.35 in 10.0 mi ESE 4.6 mph - N/A   Overcast
2:55 AM 30.2 °F 24.3 °F 23.0 °F 75% 30.35 in 10.0 mi ESE 5.8 mph - N/A   Overcast
3:15 AM 30.2 °F 22.6 °F 23.0 °F 75% 30.35 in 10.0 mi ESE 8.1 mph - N/A   Overcast
3:35 AM 30.2 °F 24.3 °F 23.0 °F 75% 30.35 in 10.0 mi East 5.8 mph - N/A   Overcast
3:55 AM 30.2 °F 24.3 °F 23.0 °F 75% 30.35 in 10.0 mi ESE 5.8 mph - N/A   Overcast
4:15 AM 30.2 °F 24.3 °F 23.0 °F 75% 30.34 in 10.0 mi ESE 5.8 mph - N/A   Overcast
4:35 AM 30.2 °F 24.3 °F 24.8 °F 80% 30.34 in 10.0 mi ESE 5.8 mph - N/A   Overcast
4:55 AM 30.2 °F 23.4 °F 24.8 °F 80% 30.32 in 10.0 mi East 6.9 mph - N/A   Overcast
5:15 AM 30.2 °F 23.4 °F 24.8 °F 80% 30.32 in 10.0 mi East 6.9 mph - N/A   Overcast
5:35 AM 30.2 °F 22.6 °F 23.0 °F 75% 30.32 in 10.0 mi East 8.1 mph - N/A   Overcast
5:55 AM 30.2 °F 23.4 °F 24.8 °F 80% 30.32 in 10.0 mi East 6.9 mph - N/A   Overcast
6:15 AM 30.2 °F 23.4 °F 24.8 °F 80% 30.31 in 10.0 mi East 6.9 mph - N/A   Overcast
6:35 AM 30.2 °F 22.6 °F 24.8 °F 80% 30.31 in 10.0 mi East 8.1 mph - N/A   Overcast
7:35 AM 30.2 °F 21.3 °F 24.8 °F 80% 30.28 in 10.0 mi East 10.4 mph - N/A   Overcast
7:55 AM 30.2 °F 21.9 °F 24.8 °F 80% 30.28 in 10.0 mi East 9.2 mph - N/A   Overcast
8:15 AM 30.2 °F 21.9 °F 24.8 °F 80% 30.28 in 10.0 mi East 9.2 mph - N/A   Overcast
8:35 AM 30.2 °F 22.6 °F 24.8 °F 80% 30.29 in 10.0 mi East 8.1 mph - N/A   Overcast
8:55 AM 32.0 °F 24.8 °F 24.8 °F 75% 30.29 in 10.0 mi East 8.1 mph - N/A   Overcast
9:15 AM 32.0 °F 24.2 °F 24.8 °F 75% 30.28 in 10.0 mi East 9.2 mph - N/A   Overcast
9:35 AM 32.0 °F 25.6 °F 24.8 °F 75% 30.29 in 10.0 mi East 6.9 mph - N/A   Overcast
9:55 AM 33.8 °F 25.8 °F 24.8 °F 70% 30.28 in 10.0 mi ESE 10.4 mph - N/A   Overcast
10:15 AM 33.8 °F 25.3 °F 24.8 °F 70% 30.27 in 10.0 mi ESE 11.5 mph - N/A   Overcast
10:55 AM 35.6 °F 27.5 °F 26.6 °F 70% 30.27 in 10.0 mi ESE 11.5 mph - N/A   Overcast
11:15 AM 35.6 °F 28.6 °F 26.6 °F 70% 30.26 in 10.0 mi ESE 9.2 mph - N/A   Overcast
11:35 AM 35.6 °F 27.1 °F 26.6 °F 70% 30.25 in 10.0 mi ESE 12.7 mph 17.3 mph N/A   Overcast
11:55 AM 35.6 °F 27.5 °F 26.6 °F 70% 30.24 in 10.0 mi ESE 11.5 mph - N/A   Overcast
12:15 PM 35.6 °F 27.1 °F 26.6 °F 70% 30.22 in 10.0 mi ESE 12.7 mph - N/A   Overcast
1:35 PM 37.4 °F 30.8 °F 28.4 °F 70% 30.18 in 10.0 mi East 9.2 mph - N/A   Overcast
1:55 PM 37.4 °F 29.3 °F 28.4 °F 70% 30.17 in 10.0 mi East 12.7 mph - N/A   Overcast
2:15 PM 37.4 °F 30.3 °F 28.4 °F 70% 30.16 in 10.0 mi East 10.4 mph - N/A   Overcast
2:35 PM 37.4 °F 30.3 °F 28.4 °F 70% 30.15 in 10.0 mi ESE 10.4 mph - N/A   Overcast
2:55 PM 37.4 °F 28.9 °F 28.4 °F 70% 30.14 in 10.0 mi ESE 13.8 mph - N/A   Overcast
3:15 PM 37.4 °F 29.3 °F 28.4 °F 70% 30.14 in 10.0 mi SE 12.7 mph 18.4 mph N/A   Overcast
3:35 PM 37.4 °F 29.3 °F 28.4 °F 70% 30.13 in 10.0 mi ESE 12.7 mph - N/A   Overcast
3:55 PM 37.4 °F 28.9 °F 28.4 °F 70% 30.13 in 10.0 mi SE 13.8 mph 17.3 mph N/A   Overcast
4:15 PM 37.4 °F 29.3 °F 28.4 °F 70% 30.12 in 10.0 mi SE 12.7 mph - N/A   Overcast
4:35 PM 37.4 °F 29.8 °F 28.4 °F 70% 30.12 in 10.0 mi SE 11.5 mph - N/A   Overcast
4:55 PM 37.4 °F 28.9 °F 26.6 °F 65% 30.11 in 10.0 mi ESE 13.8 mph - N/A   Overcast
5:15 PM 37.4 °F 28.9 °F 28.4 °F 70% 30.09 in 10.0 mi ESE 13.8 mph 19.6 mph N/A   Overcast
5:35 PM 35.6 °F 27.5 °F 26.6 °F 70% 30.08 in 10.0 mi ESE 11.5 mph - N/A   Overcast
5:55 PM 35.6 °F 27.1 °F 26.6 °F 70% 30.08 in 10.0 mi East 12.7 mph - N/A   Overcast
6:15 PM 35.6 °F 27.1 °F 26.6 °F 70% 30.08 in 10.0 mi ESE 12.7 mph - N/A   Overcast
7:35 PM 35.6 °F 27.5 °F 26.6 °F 70% 30.07 in 10.0 mi ESE 11.5 mph - N/A   Overcast
7:55 PM 33.8 °F 27.0 °F 26.6 °F 75% 30.07 in 10.0 mi East 8.1 mph - N/A   Overcast
8:35 PM 33.8 °F 26.4 °F 26.6 °F 75% 30.06 in 10.0 mi East 9.2 mph - N/A   Scattered Clouds
8:55 PM 33.8 °F 25.8 °F 24.8 °F 70% 30.04 in 10.0 mi ESE 10.4 mph - N/A   Clear
9:15 PM 33.8 °F 25.8 °F 24.8 °F 70% 30.04 in 10.0 mi ESE 10.4 mph - N/A   Clear
9:35 PM - - - N/A% 30.03 in 10.0 mi ESE 8.1 mph - N/A   Clear
9:55 PM 32.0 °F 27.5 °F 24.8 °F 75% 30.03 in 10.0 mi ESE 4.6 mph - N/A   Clear
10:15 PM 30.2 °F 24.3 °F 24.8 °F 80% 30.02 in 10.0 mi NNE 5.8 mph - N/A   Clear
10:35 PM 30.2 °F 25.4 °F 24.8 °F 80% 30.02 in 10.0 mi NE 4.6 mph - N/A   Clear
10:55 PM 28.4 °F 24.6 °F 24.8 °F 86% 30.02 in 10.0 mi ENE 3.5 mph - N/A   Clear
11:15 PM 28.4 °F 23.3 °F 24.8 °F 86% 30.01 in 10.0 mi East 4.6 mph - N/A   Clear
11:35 PM 26.6 °F 19.1 °F 23.0 °F 86% 30.00 in 10.0 mi SE 6.9 mph - N/A   Clear
11:55 PM 28.4 °F 24.6 °F 24.8 °F 86% 30.01 in 10.0 mi NE 3.5 mph - N/A   Clear